Volver al catálogo

COSMOS 2298

ActivoComunicacionesLEO
NORAD 23431·PAYLOAD·🇷🇺 Russia

Lanzado Dec 20, 1994 desde Plesetsk Cosmodrome

Loading…

Próximos Pases (próximas 24 horas)

TLE

ActualizadoSource: Space-Track

Época: Sep 14, 2026, 07:15 UTC

1 23431U 94083A   26257.30257909  .00000074  00000-0  37705-4 0  9991
2 23431  74.0317 345.6063 0017270 265.8105  94.1071 14.31199932656436

Sigue COSMOS 2298 en tiempo real con AllMySat

Download on the App Store